BENGL21 KNPA-KNIP

Flight info

Callsign BENGL21
Flight time 0h 20m
Altitude 24000
Route DCT
Aircraft VF35/M-SDFIRY/LB1

Departure

Time 2026-04-24 23:26
Airport Naval Air Station Pensacola Forrest Sherman Field (KNPA)

Arrival

Time 2026-04-24 23:47
Airport Jacksonville Naval Air Station (Towers Field) (KNIP)
Time Latitude Longitude Altitude Speed Heading
2026-04-24 23:25 30.34843 -87.32605 34 ft 0 kts 334°
2026-04-24 23:25 30.34817 -87.32720 35 ft 41 kts 240°
2026-04-24 23:25 30.34867 -87.32870 34 ft 11 kts 29°
2026-04-24 23:25 30.34903 -87.32780 34 ft 10 kts 70°
2026-04-24 23:26 30.34963 -87.32601 34 ft 87 kts 68°
2026-04-24 23:26 30.35470 -87.31157 62 ft 258 kts 71°
2026-04-24 23:26 30.36179 -87.28726 1959 ft 362 kts 74°
2026-04-24 23:26 30.36989 -87.25195 3546 ft 548 kts 82°
2026-04-24 23:27 30.37149 -87.20369 4271 ft 632 kts 92°
2026-04-24 23:27 30.36915 -87.15158 4919 ft 659 kts 94°
2026-04-24 23:27 30.36561 -87.09808 5431 ft 669 kts 95°
2026-04-24 23:27 30.36162 -87.04401 5972 ft 676 kts 95°
2026-04-24 23:28 30.35740 -86.98927 6842 ft 685 kts 95°
2026-04-24 23:28 30.35311 -86.93405 7656 ft 694 kts 95°
2026-04-24 23:28 30.35125 -86.87789 8481 ft 701 kts 89°
2026-04-24 23:28 30.35315 -86.82118 9280 ft 708 kts 89°
2026-04-24 23:29 30.35208 -86.76464 10059 ft 715 kts 92°
2026-04-24 23:29 30.35212 -86.70684 10799 ft 722 kts 88°
2026-04-24 23:29 30.35170 -86.64844 11543 ft 729 kts 91°
2026-04-24 23:29 30.35155 -86.58943 12306 ft 736 kts 88°
2026-04-24 23:30 30.35106 -86.52987 13090 ft 745 kts 91°
2026-04-24 23:30 30.35088 -86.46960 13856 ft 752 kts 88°
2026-04-24 23:30 30.35079 -86.42844 14326 ft 757 kts 91°
2026-04-24 23:30 30.34987 -86.36797 15025 ft 764 kts 89°
2026-04-24 23:31 30.34992 -86.30625 15747 ft 772 kts 90°
2026-04-24 23:31 30.34897 -86.24376 16492 ft 780 kts 89°
2026-04-24 23:31 30.34890 -86.18076 17271 ft 788 kts 90°
2026-04-24 23:31 30.34794 -86.11700 18064 ft 795 kts 89°
2026-04-24 23:32 30.34774 -86.05263 18779 ft 802 kts 90°
2026-04-24 23:32 30.34674 -85.98784 19481 ft 807 kts 89°
2026-04-24 23:32 30.34645 -85.92264 20193 ft 813 kts 90°
2026-04-24 23:32 30.34541 -85.85696 20923 ft 819 kts 89°
2026-04-24 23:33 30.34500 -85.79083 21675 ft 825 kts 90°
2026-04-24 23:33 30.34391 -85.72409 22448 ft 831 kts 89°
2026-04-24 23:33 30.34341 -85.65700 23251 ft 837 kts 90°
2026-04-24 23:33 30.34227 -85.58945 23972 ft 843 kts 89°
2026-04-24 23:34 30.34165 -85.52126 24510 ft 848 kts 90°
2026-04-24 23:34 30.34046 -85.45366 24764 ft 850 kts 89°
2026-04-24 23:34 30.33973 -85.38496 24880 ft 852 kts 90°
2026-04-24 23:34 30.33850 -85.31633 24934 ft 852 kts 90°
2026-04-24 23:35 30.33767 -85.24773 24966 ft 852 kts 90°
2026-04-24 23:35 30.33639 -85.17905 24988 ft 852 kts 90°
2026-04-24 23:35 30.33545 -85.11046 25007 ft 853 kts 90°
2026-04-24 23:35 30.33414 -85.04189 25010 ft 853 kts 90°
2026-04-24 23:36 30.33310 -84.97317 25003 ft 852 kts 90°
2026-04-24 23:36 30.33174 -84.90438 24999 ft 852 kts 90°
2026-04-24 23:36 30.33060 -84.83585 24999 ft 852 kts 90°
2026-04-24 23:36 30.32919 -84.76717 25000 ft 852 kts 90°
2026-04-24 23:37 30.32796 -84.69855 25000 ft 853 kts 90°
2026-04-24 23:37 30.32652 -84.63072 25001 ft 853 kts 90°
2026-04-24 23:37 30.32369 -84.49346 25006 ft 854 kts 90°
2026-04-24 23:38 30.32228 -84.42485 25007 ft 853 kts 90°
2026-04-24 23:38 30.32072 -84.35619 25009 ft 853 kts 90°
2026-04-24 23:38 30.31921 -84.28752 25012 ft 854 kts 90°
2026-04-24 23:38 30.31760 -84.21864 25012 ft 854 kts 90°
2026-04-24 23:39 30.31599 -84.14991 25012 ft 854 kts 90°
2026-04-24 23:39 30.31432 -84.08095 25012 ft 855 kts 90°
2026-04-24 23:39 30.31265 -84.01301 25013 ft 855 kts 90°
2026-04-24 23:39 30.31090 -83.94342 25016 ft 854 kts 90°
2026-04-24 23:40 30.30916 -83.87549 25016 ft 855 kts 90°
2026-04-24 23:40 30.30736 -83.80676 25022 ft 854 kts 91°
2026-04-24 23:40 30.30552 -83.73806 25024 ft 855 kts 90°
2026-04-24 23:40 30.29846 -83.48424 25028 ft 854 kts 91°
2026-04-24 23:41 30.28139 -82.93515 24962 ft 851 kts 91°
2026-04-24 23:41 30.26625 -82.49143 24939 ft 851 kts 91°
2026-04-24 23:41 30.26198 -82.37938 24936 ft 851 kts 91°
2026-04-24 23:41 30.25918 -82.31101 24459 ft 849 kts 92°
2026-04-24 23:42 30.25597 -82.24451 20149 ft 797 kts 92°
2026-04-24 23:42 30.25275 -82.18430 14363 ft 704 kts 93°
2026-04-24 23:42 30.24984 -82.13159 9141 ft 607 kts 93°
2026-04-24 23:42 30.24752 -82.08522 6973 ft 537 kts 91°
2026-04-24 23:43 30.24778 -82.04419 6296 ft 503 kts 88°
2026-04-24 23:43 30.24809 -82.00408 5558 ft 495 kts 92°
2026-04-24 23:43 30.24550 -81.96429 4817 ft 491 kts 94°
2026-04-24 23:43 30.24407 -81.92519 4123 ft 487 kts 91°
2026-04-24 23:44 30.24218 -81.88633 3283 ft 478 kts 99°
2026-04-24 23:44 30.23431 -81.84985 2475 ft 472 kts 110°
2026-04-24 23:44 30.22735 -81.81355 1905 ft 469 kts 88°
2026-04-24 23:44 30.22985 -81.77525 1890 ft 486 kts 87°
2026-04-24 23:45 30.23166 -81.73560 1609 ft 490 kts 90°
2026-04-24 23:45 30.23186 -81.69718 1452 ft 463 kts 91°
2026-04-24 23:45 30.22323 -81.66679 1133 ft 381 kts 177°
2026-04-24 23:45 30.21396 -81.68310 671 ft 246 kts 277°
2026-04-24 23:46 30.21608 -81.69968 536 ft 175 kts 276°
2026-04-24 23:46 30.22253 -81.71186 315 ft 202 kts 360°
2026-04-24 23:46 30.23188 -81.70249 254 ft 210 kts 97°
2026-04-24 23:46 30.23164 -81.68669 29 ft 169 kts 93°
2026-04-24 23:47 30.23167 -81.67731 21 ft 65 kts 85°
2026-04-24 23:47 30.23075 -81.67483 22 ft 26 kts 188°
2026-04-24 23:47 30.23023 -81.67602 23 ft 17 kts 248°
2026-04-24 23:47 30.22988 -81.67619 23 ft 0 kts 176°